Weather History for Anniston, AL

Change the Weather History Date:

Tuesday, November 20, 2012

  Actual Average Record
Temperature  
Mean Temperature 55 °F 52 °F  
Max Temperature 70 °F 64 °F 78 °F (1979)
Min Temperature 39 °F 41 °F 20 °F (1903)
Degree Days  
Heating Degree Days 10    
Month to date heating degree days 276  
Since 1 July heating degree days 429  
Growing Degree Days 4 (Base 50)    
Moisture  
Dew Point 42 °F    
Average Humidity 64    
Maximum Humidity 96    
Minimum Humidity 31    
Precipitation  
Precipitation 0.00 in 0.17 in 1.47 in (1986)
Month to date precipitation 0.99 2.95  
Year to date precipitation 39.26 43.92  
Sea Level Pressure  
Sea Level Pressure 30.16 in    
Wind  
Wind Speed 1 mph (NNW)    
Max Wind Speed 10 mph    
Max Gust Speed 13 mph    
Visibility 9 miles    
Events      
T = Trace of Precipitation, MM = Missing Value Source: NWS Daily Summary

Daily Weather History Graph

Daily Weather History Graph

Search for Another Location

Airport:

Trip Planner

Search our weather history database for the weather conditions in past years. The results will help you decide how hot, cold, wet, or windy it might be!

Date:

Astronomy

Nov. 20, 2012 Rise Set
Actual Time 6:20 AM CST 4:37 PM CST
Civil Twilight 5:53 AM CST 5:04 PM CST
Nautical Twilight 5:23 AM CST 5:34 PM CST
Astronomical Twilight 4:53 AM CST 6:04 PM CST
Moon 12:04 PM CST (11/20) 11:57 PM CST (11/20)
Length of Visible Light 11h 11m
Length of Day
10h 17m
First Quarter, 51% of the Moon is Illuminated
Nov 20
First Quarter
Nov 28
Full
Dec 6
Last Quarter
Dec 13
New
Dec 19
First Quarter

Hourly Weather History & Observations

Time (CST) Temp. Dew Point Humidity Pressure Visibility Wind Dir Wind Speed Gust Speed Precip Events Conditions
12:53 AM 45.0 °F 43.0 °F 93% 30.19 in 10.0 mi Calm Calm - N/A   Overcast
2:46 AM 42.8 °F 39.2 °F 87% 30.18 in 8.0 mi Calm Calm - N/A   Clear
2:53 AM 42.1 °F 39.9 °F 92% 30.19 in 8.0 mi Calm Calm - N/A   Clear
3:53 AM 44.1 °F 42.1 °F 93% 30.19 in 7.0 mi Calm Calm - N/A   Scattered Clouds
4:53 AM 41.0 °F 39.9 °F 96% 30.19 in 7.0 mi Calm Calm - N/A   Clear
5:53 AM 41.0 °F 39.9 °F 96% 30.20 in 6.0 mi Calm Calm - N/A   Clear
6:53 AM 39.9 °F 37.9 °F 93% 30.23 in 5.0 mi Calm Calm - N/A   Clear
7:53 AM 46.0 °F 44.1 °F 93% 30.23 in 6.0 mi Calm Calm - N/A   Clear
8:53 AM 53.1 °F 46.0 °F 77% 30.22 in 7.0 mi Calm Calm - N/A   Clear
9:53 AM 59.0 °F 44.1 °F 58% 30.22 in 6.0 mi Calm Calm - N/A   Haze
10:53 AM 64.0 °F 43.0 °F 46% 30.18 in 10.0 mi Calm Calm - N/A   Clear
11:53 AM 66.9 °F 42.1 °F 40% 30.14 in 10.0 mi Calm Calm - N/A   Clear
12:53 PM 68.0 °F 39.9 °F 36% 30.11 in 10.0 mi North 5.8 mph - N/A   Clear
1:53 PM 70.0 °F 41.0 °F 35% 30.10 in 10.0 mi NW 5.8 mph - N/A   Clear
2:53 PM 69.1 °F 37.9 °F 32% 30.10 in 10.0 mi North 8.1 mph - N/A   Clear
3:53 PM 68.0 °F 41.0 °F 37% 30.09 in 10.0 mi NNW 3.5 mph - N/A   Clear
4:53 PM 57.0 °F 45.0 °F 64% 30.10 in 10.0 mi Calm Calm - N/A   Clear
5:53 PM 52.0 °F 45.0 °F 77% 30.12 in 10.0 mi Calm Calm - N/A   Clear
6:53 PM 48.0 °F 44.1 °F 86% 30.14 in 10.0 mi Calm Calm - N/A   Clear
7:53 PM 48.0 °F 43.0 °F 83% 30.14 in 10.0 mi Calm Calm - N/A   Clear
8:53 PM 46.0 °F 43.0 °F 89% 30.15 in 10.0 mi Calm Calm - N/A   Scattered Clouds
9:53 PM 48.0 °F 45.0 °F 89% 30.15 in 10.0 mi Calm Calm - N/A   Overcast
10:53 PM 48.9 °F 45.0 °F 86% 30.14 in 10.0 mi Calm Calm - N/A   Overcast
11:53 PM 46.9 °F 44.1 °F 90% 30.13 in 10.0 mi Calm Calm - N/A   Overcast